This demonstration page uses our WeatherBlox Daily Observations layout. Learn more.

Left ArrowRight Arrow

Hourly Observations for March 10, 2020

Temp ( °F °C ) Dew Point ( °F °C ) Humidity (%) Winds ( mph kmh ) Pressure ( in mb ) Visibility ( mi km ) Precip ( " mm )
12:46 am 00:46 Cloudy with Mist and Fog 32 0 30 -1 93 93 NE 3 6 30.31 1026 2 3 0.00 0.00
12:56 am 00:56 Cloudy with Mist and Fog 31 -0.6 30 -1.1 96 96 N 3 6 30.28 1025 3 5 0.00 0.00
1:31 am 01:31 Cloudy with Mist and Fog 30 -1 30 -1 100 100 Calm 30.33 1027 2 3 0.00 0.00
1:41 am 01:41 Cloudy with Mist and Fog 30 -1 30 -1 100 100 SSE 3 6 30.33 1027 1 2 0.00 0.00
1:49 am 01:49 Cloudy with Mist and Fog 30 -1 30 -1 100 100 Calm 30.32 1027 1 1 0.00 0.00
1:56 am 01:56 Cloudy with Freezing Fog 31 -0.6 30 -1.1 96 96 Calm 30.29 1026 1 1 0.00 0.00
2:08 am 02:08 Cloudy with Mist and Fog 30 -1 28 -2 93 93 S 3 6 30.34 1027 1 1 0.00 0.00
2:15 am 02:15 Cloudy with Freezing Fog 30 -1 28 -2 93 93 S 5 7 30.34 1027 1 1 0.00 0.00
2:56 am 02:56 Cloudy with Freezing Fog 31 -0.6 29 -1.7 92 92 Calm 30.29 1026 1 1 0.00 0.00
3:04 am 03:04 Cloudy with Freezing Fog 30 -1 28 -2 93 93 SSW 3 6 30.34 1027 0 0 0.00 0.00
3:35 am 03:35 Cloudy with Light Wintry Mix 30 -1 30 -1 100 100 SSW 6 9 30.34 1027 1 1 0.00 0.00
3:43 am 03:43 Cloudy with Light Wintry Mix 30 -1 30 -1 100 100 SSW 8 13 30.33 1027 0 0 0.00 0.00
3:53 am 03:53 Cloudy with Light Wintry Mix 30 -1 30 -1 100 100 S 7 11 30.33 1027 1 1 0.00 0.00
3:56 am 03:56 Cloudy with Light Wintry Mix 31 -0.6 30 -1.1 96 96 SSE 6 9 30.27 1025 0 0 0.00 0.00
4:21 am 04:21 Cloudy with Light Wintry Mix 30 -1 30 -1 100 100 SSW 7 11 30.33 1027 1 1 0.00 0.00
4:56 am 04:56 Cloudy with Light Wintry Mix 31 -0.6 30 -1.1 96 96 SSE 3 6 30.25 1025 1 1 0.00 0.00
5:56 am 05:56 Cloudy with Freezing Fog 31 -0.6 30 -1.1 96 96 S 5 7 30.27 1025 1 1 0.00 0.00
6:29 am 06:29 Cloudy with Light Wintry Mix 32 0 30 -1 93 93 SSW 7 11 30.33 1027 1 1 0.00 0.00
6:56 am 06:56 Cloudy with Light Wintry Mix 32 0 31 -0.6 96 96 S 6 9 30.28 1025 1 1 0.00 0.00
7:19 am 07:19 Cloudy with Light Wintry Mix 30 -1 30 -1 100 100 SSE 5 7 30.33 1027 1 2 0.00 0.00
7:40 am 07:40 Cloudy with Mist and Fog 30 -1 30 -1 100 100 S 7 11 30.32 1027 2 3 0.00 0.00
7:56 am 07:56 Cloudy with Light Wintry Mix 31 -0.6 31 -0.6 100 100 SSW 5 7 30.28 1025 3 5 0.00 0.00
8:56 am 08:56 Cloudy 32 0 31 -0.6 96 96 S 10 17 30.27 1025 8 13 0.00 0.00
9:11 am 09:11 Cloudy with Mist and Fog 32 0 32 0 100 100 SSW 12 19 30.32 1027 2 3 0.00 0.00
9:20 am 09:20 Cloudy with Mist and Fog 34 1 32 0 93 93 S 12 19 30.31 1026 6 10 0.00 0.00
9:56 am 09:56 Cloudy 34 1.1 33 0.6 97 97 SSW 12 19 30.27 1025 7 11 0.00 0.00
10:56 am 10:56 Cloudy 35 1.7 35 1.7 100 100 SSW 8 13 30.27 1025 9 14 0.00 0.00
11:52 am 11:52 Cloudy 39 4 37 3 93 93 W 5 7 30.29 1026 10 16 0.00 0.00
11:56 am 11:56 Cloudy 39 3.9 38 3.3 96 96 W 5 7 30.27 1025 10 16 0.00 0.00
12:22 pm 12:22 Cloudy 39 4 36 2 87 87 Calm 30.27 1025 10 16 0.00 0.00
12:56 pm 12:56 Cloudy 41 5 37 2.8 86 86 SSE 5 7 30.23 1024 10 16 0.00 0.00
1:56 pm 13:56 Cloudy 42 5.6 38 3.3 85 85 SE 7 11 30.20 1023 10 16 0.00 0.00
2:38 pm 14:38 Cloudy 45 7 39 4 81 81 SE 9 15 30.15 1021 10 16 0.00 0.00
2:56 pm 14:56 Cloudy 45 7.2 40 4.4 83 83 SE 12 19 30.14 1021 10 16 0.00 0.00
3:13 pm 15:13 Mostly Cloudy 46 8 41 5 82 82 ESE 12 19 30.11 1020 10 16 0.00 0.00
3:45 pm 15:45 Cloudy 52 11 41 5 67 67 S 10 17 30.08 1019 10 16 0.00 0.00
3:56 pm 15:56 Cloudy 52 11.1 41 5 66 66 S 15 24 30.10 1019 10 16 0.00 0.00
4:56 pm 16:56 Cloudy 52 11.1 42 5.6 69 69 S 13 20 30.08 1019 10 16 0.00 0.00
5:12 pm 17:12 Partly Cloudy 52 11 43 6 72 72 S 14 22 30.05 1018 10 16 0.00 0.00
5:56 pm 17:56 Sunny 52 11.1 42 5.6 69 69 S 14 22 30.06 1018 10 16 0.00 0.00
6:56 pm 18:56 Sunny 49 9.4 42 5.6 77 77 S 12 19 30.06 1018 10 16 0.00 0.00
7:56 pm 19:56 Clear 46 7.8 41 5 83 83 S 8 13 30.08 1019 10 16 0.00 0.00
8:56 pm 20:56 Clear 44 6.7 40 4.4 85 85 S 7 11 30.12 1020 10 16 0.00 0.00
9:56 pm 21:56 Clear 44 6.7 40 4.4 85 85 S 12 19 30.10 1019 10 16 0.00 0.00
10:56 pm 22:56 Clear 45 7.2 40 4.4 83 83 N 3 6 30.12 1020 10 16 0.00 0.00
11:56 pm 23:56 Clear 40 4.4 38 3.3 93 93 Calm 30.11 1020 10 16 0.00 0.00

Powered by AerisWeather